Location: Durham
(54.7770°N, 1.5720°W)
Time: 11:52:13
(UTC+01:00)

ISS - Visible Passes

Search period start: 25 July 2017 00:00
Search period end: 04 August 2017 00:00
Orbit: 400 x 408 km, 51.6° (Epoch: 25 July)

Date Brightness Start Highest point End Pass type
(mag) Time Alt. Az. Time Alt. Az. Time Alt. Az.
25 Jul -3.7 00:42:18 10° WSW 00:45:27 48° S 00:48:37 10° ESE visible
25 Jul -3.2 02:18:38 10° W 02:21:37 33° SSW 02:24:37 10° SE visible
25 Jul -1.9 03:56:06 10° WSW 03:57:25 12° SW 03:58:43 10° SSW visible
25 Jul -2.6 22:14:36 10° SSW 22:17:11 22° SSE 22:19:45 10° E visible
25 Jul -3.6 23:50:04 10° WSW 23:53:12 45° S 23:56:21 10° E visible
26 Jul -3.5 01:26:18 10° W 01:29:16 40° SSW 01:29:16 40° SSW visible
26 Jul -3.4 22:57:53 10° WSW 23:00:57 39° SSE 23:04:02 10° E visible
27 Jul -3.6 00:34:00 10° W 00:37:08 46° S 00:37:54 37° SE visible
27 Jul -3.0 22:05:47 10° SW 22:08:43 31° SSE 22:11:39 10° E visible
27 Jul -3.7 23:41:42 10° WSW 23:44:52 48° S 23:46:54 19° ESE visible
28 Jul -2.2 01:18:04 10° W 01:19:30 21° WSW 01:19:30 21° WSW visible
28 Jul -3.6 22:49:25 10° WSW 22:52:34 46° S 22:55:43 10° E visible
29 Jul -3.3 00:25:41 10° W 00:28:38 38° SSW 00:28:38 38° SSW visible
29 Jul -3.4 21:57:11 10° WSW 22:00:16 41° SSE 22:03:22 10° E visible
29 Jul -3.5 23:33:19 10° W 23:36:28 45° S 23:37:49 27° SE visible
30 Jul -1.4 01:09:55 10° W 01:10:25 13° WSW 01:10:25 13° WSW visible
30 Jul -3.6 22:40:59 10° WSW 22:44:09 48° S 22:47:01 12° ESE visible
31 Jul -2.6 00:17:24 10° W 00:19:37 26° SW 00:19:37 26° SW visible
31 Jul -3.2 23:24:58 10° W 23:27:59 36° SSW 23:28:52 29° SSE visible
01 Aug -3.4 22:32:33 10° W 22:35:40 43° S 22:38:06 15° ESE visible
02 Aug -1.9 00:09:14 10° WSW 00:10:43 17° SW 00:10:43 17° SW visible
02 Aug -2.6 23:16:37 10° W 23:19:24 26° SSW 23:19:58 24° S visible
03 Aug -2.9 22:24:07 10° W 22:27:06 33° SSW 22:29:15 16° SE visible
